Location: *
(43.9905°S, 176.4941°W)
Time: 08:25:43
(UTC+00:00)

Cosmos 1544 Rocket - Pass Details

Date: 08 December 2019
Orbit: 604 x 631 km, 82.5° (Epoch: 21 January)

Event Time Altitude Azimuth Distance (km) Brightness Sun altitude
Exits shadow 09:43:01 36° 1° (N) 1,000 4.1 -18.3°
Maximum altitude 09:44:49 80° 83° (E) 643 3.5 -18.5°
Drops below altitude 10° 09:49:17 10° 169° (S) 2,012 6.9 -18.8°
Sets 09:51:31 0° 170° (S) 2,922 7.9 -19.0°
